Weather in Matera

Italy     40°40′37″N   16°35′25″E
temp.,
°C
wind,
m/s
gust,
m/s
humid.,
%
clouds,
%
prec.,
mm/h
press.,
hPa
HPBL,
m
17 september, fri
fri1723:00+23sse2361100 0.0 101658
02:00+22ssw1166100 0.0 101618
05:00+21w2272100 0.5 101516
08:00+22nne015892 1.5 101539
11:00+28se343828 0.6 1015469
14:00+32sw4929100 0.8 10142165
17:00+28sw5835100 0.0 1013513
20:00+26ssw254592 0.0 1013176
18 september, sat
sat1823:00+24wsw134958 0.0 1013121
02:00+23w2355100 0.1 101442
05:00+22ne1156100 0.3 101313
08:00+22w2561100 1.1 1014193
11:00+29wsw511346 1.1 10132237
14:00+32w8102910 1.1 10122631
17:00+31wsw582946 0.0 10112131
20:00+25n235210 0.1 101275
19 september, sun
sun1923:00+24n12595 0.0 101317
02:00+23nw1163100 0.0 101311
05:00+22w116453 0.0 101211
08:00+23w12560 0.0 101392
11:00+28sw34365 0.1 1013751
14:00+33w592481 0.1 10103124
17:00+31w68284 0.0 10102197
20:00+26w510430 0.0 1011300
20 september, mon
mon2023:00+23w38553 0.0 1013226
02:00+21w36640 0.0 1013137
05:00+20wnw25630 0.0 101391
08:00+21w24590 0.0 1014138
11:00+27w363772 0.0 10141540
14:00+31w582417 0.0 10122839
17:00+30wsw46273 0.0 10122128
20:00+24n124678 0.0 101429
21 september, tue
tue2123:00+23nnw225014 0.0 101621
02:00+22n2444100 0.1 1016237
05:00+21s124982 0.1 1016138
08:00+21nnw2354100 0.1 1017210
11:00+25nw33420 0.0 10181105
14:00+27nw22331 0.0 10172081
17:00+26nne754258 0.0 1016990
20:00+22ne355849 0.0 1018291